Calhoun, IL

2:03 PM CST on February 06, 2016 (GMT -0600)
Olney-Noble

Weather History for KOLY - February, 2012

Change the Weather History Date:

Tuesday, February 21, 2012

  Actual Average (KEVV) Record (KEVV)
Temperature  
Mean Temperature 46 °F 38 °F  
Max Temperature 51 °F 48 °F 72 °F (1922)
Min Temperature 42 °F 29 °F -3 °F (1963)
Degree Days  
Heating Degree Days 18 27  
Month to date heating degree days 618  
Since 1 July heating degree days 3397  
Cooling Degree Days 0 0  
Month to date cooling degree days 0  
Year to date cooling degree days 0  
Moisture  
Dew Point 36 °F    
Average Humidity 64    
Maximum Humidity 76    
Minimum Humidity 54    
Precipitation  
Precipitation 0.00 in 0.10 in 1.36 in (1950)
Month to date precipitation 2.39  
Year to date precipitation 5.49  
Snow  
Snow 0.00 in 0.10 in 0.60 in (1965)
Month to date snowfall 3.0  
Since 1 July snowfall 9.9  
Snow Depth -    
Sea Level Pressure  
Sea Level Pressure 29.82 in    
Wind  
Wind Speed 11 mph (SW)    
Max Wind Speed 18 mph    
Max Gust Speed 28 mph    
Visibility 10 miles    
Events Rain    
T = Trace of Precipitation, MM = Missing Value Source: NWS Daily Summary

Daily Weather History Graph

Daily Weather History Graph

Search for Another Location

Airport or City:

Trip Planner

Search our weather history database for the weather conditions in past years. The results will help you decide how hot, cold, wet, or windy it might be!

Date:

Astronomy

Feb. 21, 2012 Rise Set
Actual Time 6:36 AM CST 5:36 PM CST
Civil Twilight 6:09 AM CST 6:03 PM CST
Nautical Twilight 5:38 AM CST 6:34 PM CST
Astronomical Twilight 5:08 AM CST 7:05 PM CST
Moon 6:05 AM CST (2/21) 5:42 PM CST (2/21)
Length of Visible Light 11h 53m
Length of Day
10h 59m
Waning Crescent, 0% of the Moon is Illuminated
Feb 21
Waning Crescent
Feb 21
New
Feb 29
First Quarter
Mar 8
Full
Mar 14
Last Quarter

Hourly Weather History & Observations

Time (CST) Temp. Windchill Dew Point Humidity Pressure Visibility Wind Dir Wind Speed Gust Speed Precip Events Conditions
12:15 AM 42.8 °F 36.2 °F 28.4 °F 57% 29.88 in 10.0 mi SE 12.7 mph - N/A   Mostly Cloudy
12:35 AM 42.8 °F 36.6 °F 28.4 °F 57% 29.86 in 10.0 mi SE 11.5 mph - N/A   Mostly Cloudy
12:55 AM 42.8 °F 36.2 °F 30.2 °F 61% 29.85 in 10.0 mi SSE 12.7 mph 17.3 mph N/A   Mostly Cloudy
1:15 AM 42.8 °F 38.0 °F 30.2 °F 61% 29.83 in 10.0 mi SSE 8.1 mph - N/A Rain Light Rain
1:35 AM 42.8 °F 36.6 °F 30.2 °F 61% 29.81 in 10.0 mi SE 11.5 mph - N/A   Overcast
1:55 AM 42.8 °F 35.8 °F 32.0 °F 66% 29.78 in 10.0 mi SSE 13.8 mph 19.6 mph N/A Rain Light Rain
2:15 AM 42.8 °F 35.1 °F 33.8 °F 70% 29.72 in 10.0 mi SSE 16.1 mph 21.9 mph N/A   Overcast
2:35 AM 44.6 °F 36.9 °F 35.6 °F 71% 29.74 in 10.0 mi South 18.4 mph 27.6 mph N/A   Mostly Cloudy
2:55 AM 44.6 °F 38.1 °F 35.6 °F 71% 29.73 in 10.0 mi South 13.8 mph 19.6 mph N/A   Scattered Clouds
3:15 AM 44.6 °F 38.4 °F 35.6 °F 71% 29.73 in 10.0 mi South 12.7 mph - N/A   Overcast
3:35 AM 44.6 °F 38.1 °F 35.6 °F 71% 29.73 in 10.0 mi South 13.8 mph 17.3 mph N/A   Mostly Cloudy
3:55 AM 44.6 °F 38.1 °F 35.6 °F 71% 29.72 in 10.0 mi South 13.8 mph 21.9 mph N/A   Overcast
4:15 AM 44.6 °F 39.2 °F 37.4 °F 76% 29.72 in 10.0 mi South 10.4 mph 19.6 mph N/A   Overcast
5:15 AM 44.6 °F 39.2 °F 37.4 °F 76% 29.73 in 10.0 mi South 10.4 mph 16.1 mph N/A   Overcast
5:35 AM 46.4 °F 41.1 °F 37.4 °F 71% 29.74 in 10.0 mi SSW 11.5 mph 18.4 mph N/A Rain Light Rain
5:55 AM 46.4 °F 41.5 °F 37.4 °F 71% 29.75 in 10.0 mi SW 10.4 mph 16.1 mph N/A   Overcast
6:15 AM 46.4 °F 41.5 °F 37.4 °F 71% 29.75 in 10.0 mi SW 10.4 mph 19.6 mph N/A   Overcast
6:35 AM 46.4 °F 41.5 °F 37.4 °F 71% 29.76 in 10.0 mi SW 10.4 mph 16.1 mph N/A   Overcast
6:55 AM 46.4 °F 41.5 °F 37.4 °F 71% 29.77 in 10.0 mi SW 10.4 mph 17.3 mph N/A   Overcast
7:15 AM 46.4 °F 42.9 °F 35.6 °F 66% 29.78 in 10.0 mi SW 6.9 mph 17.3 mph N/A   Overcast
7:35 AM 46.4 °F 41.9 °F 35.6 °F 66% 29.79 in 10.0 mi SW 9.2 mph 17.3 mph N/A   Overcast
7:55 AM 46.4 °F 42.4 °F 35.6 °F 66% 29.81 in 10.0 mi SW 8.1 mph - N/A   Overcast
8:15 AM 46.4 °F 41.1 °F 35.6 °F 66% 29.82 in 10.0 mi SW 11.5 mph 19.6 mph N/A   Overcast
8:35 AM 48.2 °F - 35.6 °F 62% 29.83 in 10.0 mi SW 10.4 mph 16.1 mph N/A   Overcast
8:55 AM 48.2 °F - 35.6 °F 62% 29.83 in 10.0 mi SW 13.8 mph 18.4 mph N/A   Overcast
9:15 AM 48.2 °F - 35.6 °F 62% 29.84 in 10.0 mi SW 8.1 mph 16.1 mph N/A   Overcast
9:35 AM 48.2 °F - 35.6 °F 62% 29.84 in 10.0 mi SW 9.2 mph 19.6 mph N/A   Overcast
9:55 AM 48.2 °F - 37.4 °F 66% 29.85 in 10.0 mi SW 13.8 mph 23.0 mph N/A   Overcast
10:15 AM 50.0 °F - 37.4 °F 62% 29.85 in 10.0 mi SW 12.7 mph 19.6 mph N/A   Overcast
10:35 AM 50.0 °F - 35.6 °F 58% 29.85 in 10.0 mi WSW 16.1 mph 20.7 mph N/A   Overcast
10:55 AM 50.0 °F - 37.4 °F 62% 29.86 in 10.0 mi WSW 15.0 mph 18.4 mph N/A   Overcast
11:15 AM 50.0 °F - 37.4 °F 62% 29.86 in 10.0 mi WSW 15.0 mph 25.3 mph N/A   Overcast
11:35 AM 50.0 °F - 37.4 °F 62% 29.87 in 10.0 mi WSW 10.4 mph 17.3 mph N/A   Overcast
11:55 AM 50.0 °F - 37.4 °F 62% 29.87 in 10.0 mi SW 9.2 mph 16.1 mph N/A   Overcast
12:15 PM 48.2 °F - 37.4 °F 66% 29.86 in 10.0 mi SW 9.2 mph 19.6 mph N/A   Overcast
12:35 PM 48.2 °F - 37.4 °F 66% 29.86 in 10.0 mi SW 5.8 mph - N/A   Overcast
12:55 PM 48.2 °F - 37.4 °F 66% 29.86 in 10.0 mi SW 9.2 mph - N/A   Overcast
1:15 PM 50.0 °F - 37.4 °F 62% 29.85 in 10.0 mi SW 9.2 mph 17.3 mph N/A   Overcast
1:35 PM 48.2 °F - 37.4 °F 66% 29.85 in 10.0 mi WSW 8.1 mph 17.3 mph N/A   Overcast
1:55 PM 48.2 °F - 37.4 °F 66% 29.85 in 10.0 mi WSW 12.7 mph 19.6 mph N/A   Overcast
2:15 PM 48.2 °F - 37.4 °F 66% 29.85 in 10.0 mi WSW 8.1 mph 18.4 mph N/A   Overcast
2:35 PM 48.2 °F - 39.2 °F 71% 29.85 in 10.0 mi WSW 9.2 mph 17.3 mph N/A   Overcast
2:55 PM 50.0 °F - 37.4 °F 62% 29.85 in 10.0 mi WSW 13.8 mph 23.0 mph N/A   Overcast
3:15 PM 51.8 °F - 37.4 °F 58% 29.86 in 10.0 mi SW 13.8 mph 23.0 mph N/A   Mostly Cloudy
3:35 PM 51.8 °F - 37.4 °F 58% 29.85 in 10.0 mi WSW 10.4 mph 19.6 mph N/A   Scattered Clouds
3:55 PM 51.8 °F - 37.4 °F 58% 29.85 in 10.0 mi WSW 8.1 mph - N/A   Clear
4:15 PM 51.8 °F - 35.6 °F 54% 29.87 in 10.0 mi WSW 6.9 mph - N/A   Clear
4:35 PM 50.0 °F - 35.6 °F 58% 29.88 in 10.0 mi WSW 8.1 mph - N/A   Clear
4:55 PM 50.0 °F - 35.6 °F 58% 29.88 in 10.0 mi WSW 10.4 mph - N/A   Clear
5:15 PM 48.2 °F - 33.8 °F 58% 29.88 in 10.0 mi WSW 6.9 mph - N/A   Clear
5:35 PM 48.2 °F - 33.8 °F 58% 29.88 in 10.0 mi WSW 5.8 mph - N/A   Clear
5:55 PM 48.2 °F - 33.8 °F 58% 29.88 in 10.0 mi SW 3.5 mph - N/A   Clear
6:15 PM 46.4 °F - 33.8 °F 62% 29.88 in 10.0 mi Calm Calm - N/A   Clear
6:35 PM 46.4 °F 45.2 °F 33.8 °F 62% 29.88 in 10.0 mi South 3.5 mph - N/A   Clear
6:55 PM 44.6 °F - 33.8 °F 66% 29.89 in 10.0 mi Calm Calm - N/A   Clear
7:15 PM 44.6 °F 43.1 °F 32.0 °F 61% 29.88 in 10.0 mi South 3.5 mph - N/A   Clear
7:35 PM 42.8 °F 41.1 °F 32.0 °F 66% 29.88 in 10.0 mi South 3.5 mph - N/A   Clear
7:55 PM 42.8 °F - 32.0 °F 66% 29.88 in 10.0 mi Calm Calm - N/A   Clear
8:15 PM 42.8 °F - 30.2 °F 61% 29.87 in 10.0 mi Calm Calm - N/A   Clear
8:35 PM 42.8 °F 41.1 °F 32.0 °F 66% 29.87 in 10.0 mi South 3.5 mph - N/A   Clear
8:55 PM 42.8 °F 40.1 °F 30.2 °F 61% 29.86 in 10.0 mi South 4.6 mph - N/A   Clear
9:15 PM 41.0 °F 38.0 °F 30.2 °F 65% 29.86 in 10.0 mi South 4.6 mph - N/A   Clear
9:35 PM 42.8 °F 41.1 °F 30.2 °F 61% 29.87 in 10.0 mi South 3.5 mph - N/A   Clear
9:55 PM 42.8 °F 41.1 °F 30.2 °F 61% 29.86 in 10.0 mi South 3.5 mph - N/A   Clear
10:55 PM 39.2 °F - 32.0 °F 75% 29.84 in 10.0 mi Calm Calm - N/A   Clear
11:15 PM 39.2 °F 37.0 °F 33.8 °F 81% 29.83 in 10.0 mi South 3.5 mph - N/A   Clear
11:35 PM 39.2 °F - 33.8 °F 81% 29.83 in 10.0 mi Calm Calm - N/A   Clear
11:55 PM 39.2 °F 35.9 °F 33.8 °F 81% 29.82 in 10.0 mi South 4.6 mph - N/A   Clear